Total_Precipitation_Accumulation
1.04 1.22 1.52 1.93 2.34 2.95 3.60 3.72 3.24 2.74 2.29 1.94 1.63 1.33 1.08 0.99 0.94 0.80 0.73 0.71 0.73 0.75 0.83 0.72 0.80 0.95 0.95 0.92 0.98 1.04 0.97 0.81 0.98 1.04 0.76 0.60 0.56 0.58 0.54 0.51 0.50 0.46 0.51
1.19 1.47 1.82 2.08 2.36 2.76 3.14 3.08 2.61 2.09 1.57 1.24 1.11 0.95 0.79 0.68 0.58 0.52 0.54 0.50 0.56 0.63 0.72 0.67 0.58 0.63 0.66 0.61 0.65 0.82 0.84 0.74 0.87 0.96 0.84 0.60 0.55 0.50 0.37 0.42 0.42 0.42 0.52
1.09 1.63 2.10 2.31 2.42 2.45 2.26 2.04 1.63 1.11 0.85 0.66 0.60 0.53 0.51 0.48 0.39 0.34 0.35 0.33 0.35 0.39 0.47 0.50 0.50 0.55 0.62 0.61 0.61 0.65 0.69 0.63 0.64 0.79 0.90 0.70 0.49 0.42 0.38 0.39 0.39 0.45 0.58
0.93 1.60 1.88 1.89 1.85 1.77 1.40 1.08 0.91 0.64 0.48 0.43 0.43 0.43 0.38 0.38 0.31 0.27 0.26 0.24 0.24 0.27 0.30 0.34 0.34 0.41 0.52 0.59 0.55 0.55 0.58 0.57 0.50 0.56 0.65 0.66 0.61 0.54 0.42 0.40 0.44 0.48 0.59
0.65 0.95 1.02 1.07 1.07 0.98 0.82 0.70 0.68 0.55 0.49 0.47 0.47 0.48 0.34 0.27 0.24 0.22 0.21 0.21 0.24 0.26 0.27 0.28 0.29 0.32 0.36 0.39 0.43 0.49 0.52 0.54 0.50 0.49 0.56 0.63 0.66 0.65 0.57 0.47 0.46 0.44 0.41
0.42 0.56 0.56 0.53 0.51 0.43 0.46 0.49 0.61 0.64 0.53 0.43 0.38 0.37 0.32 0.27 0.23 0.19 0.19 0.20 0.22 0.26 0.29 0.30 0.31 0.33 0.33 0.34 0.37 0.40 0.44 0.50 0.54 0.53 0.56 0.65 0.70 0.66 0.65 0.57 0.50 0.47 0.42
0.38 0.44 0.50 0.49 0.39 0.31 0.34 0.37 0.38 0.38 0.36 0.34 0.33 0.31 0.32 0.28 0.24 0.21 0.17 0.17 0.20 0.23 0.27 0.32 0.34 0.37 0.37 0.37 0.38 0.39 0.41 0.48 0.56 0.56 0.55 0.57 0.63 0.69 0.71 0.65 0.57 0.59 0.59
0.27 0.28 0.30 0.31 0.26 0.20 0.18 0.18 0.20 0.18 0.18 0.19 0.22 0.23 0.26 0.22 0.21 0.24 0.20 0.18 0.20 0.24 0.28 0.29 0.30 0.34 0.36 0.38 0.40 0.37 0.37 0.47 0.56 0.61 0.69 0.66 0.59 0.74 0.82 0.78 0.77 0.74 0.78
0.11 0.12 0.10 0.10 0.11 0.10 0.11 0.12 0.12 0.11 0.11 0.13 0.16 0.16 0.19 0.20 0.20 0.21 0.20 0.19 0.25 0.26 0.28 0.29 0.31 0.32 0.35 0.38 0.40 0.41 0.45 0.52 0.56 0.64 0.78 0.83 0.79 0.78 0.84 0.89 0.94 0.98 0.95
0.04 0.05 0.05 0.05 0.04 0.03 0.05 0.07 0.09 0.11 0.11 0.11 0.10 0.09 0.12 0.15 0.17 0.16 0.18 0.21 0.21 0.22 0.27 0.32 0.34 0.34 0.36 0.43 0.50 0.49 0.50 0.59 0.68 0.80 0.89 0.94 0.96 0.95 0.87 0.91 0.96 0.98 1.04
0.01 0.02 0.02 0.02 0.02 0.03 0.03 0.04 0.05 0.06 0.08 0.07 0.08 0.08 0.09 0.10 0.12 0.15 0.17 0.19 0.20 0.21 0.25 0.31 0.35 0.36 0.43 0.61 0.78 0.77 0.68 0.74 0.84 0.93 1.03 1.08 1.13 1.13 1.02 0.97 0.94 0.94 1.03
0.00 0.00 0.00 0.01 0.01 0.01 0.02 0.03 0.04 0.04 0.06 0.06 0.06 0.06 0.10 0.10 0.10 0.11 0.15 0.18 0.20 0.19 0.19 0.22 0.26 0.29 0.35 0.51 0.83 1.00 1.02 0.99 0.91 0.96 1.12 1.21 1.18 1.10 1.03 1.03 0.98 0.97 1.06
0.01 0.01 0.01 0.01 0.01 0.02 0.03 0.04 0.05 0.05 0.06 0.06 0.06 0.07 0.09 0.11 0.11 0.11 0.13 0.16 0.19 0.20 0.20 0.22 0.26 0.31 0.33 0.39 0.59 0.82 0.94 0.97 0.92 0.98 1.03 1.06 1.13 1.11 1.04 0.98 0.95 0.94 1.04
0.01 0.01 0.01 0.01 0.02 0.03 0.04 0.05 0.05 0.07 0.06 0.08 0.10 0.12 0.13 0.15 0.14 0.12 0.13 0.15 0.18 0.20 0.23 0.26 0.31 0.32 0.29 0.30 0.43 0.58 0.70 0.76 0.80 0.85 0.90 0.93 0.96 1.03 1.08 1.02 0.97 0.99 1.01
0.01 0.01 0.01 0.01 0.02 0.03 0.04 0.05 0.06 0.06 0.06 0.07 0.10 0.11 0.12 0.14 0.13 0.14 0.16 0.16 0.15 0.16 0.22 0.28 0.30 0.28 0.25 0.30 0.42 0.47 0.44 0.49 0.55 0.58 0.60 0.71 0.86 0.96 1.02 0.97 0.94 1.00 1.00
0.03 0.04 0.04 0.04 0.04 0.04 0.04 0.05 0.07 0.08 0.09 0.12 0.14 0.12 0.13 0.15 0.14 0.15 0.16 0.16 0.17 0.21 0.24 0.25 0.28 0.27 0.22 0.27 0.32 0.30 0.28 0.32 0.37 0.40 0.39 0.39 0.51 0.69 0.82 0.84 0.84 0.90 0.95
0.10 0.09 0.08 0.07 0.06 0.06 0.06 0.06 0.07 0.07 0.08 0.10 0.14 0.15 0.17 0.18 0.16 0.15 0.17 0.19 0.24 0.28 0.30 0.30 0.31 0.32 0.32 0.25 0.21 0.18 0.19 0.23 0.30 0.34 0.35 0.27 0.26 0.40 0.56 0.66 0.70 0.72 0.72
0.10 0.07 0.05 0.06 0.09 0.07 0.06 0.06 0.08 0.09 0.08 0.10 0.16 0.21 0.24 0.24 0.23 0.24 0.26 0.29 0.32 0.34 0.35 0.35 0.38 0.44 0.41 0.29 0.20 0.16 0.16 0.20 0.28 0.32 0.33 0.32 0.33 0.36 0.42 0.53 0.62 0.66 0.64
0.05 0.05 0.04 0.05 0.06 0.07 0.06 0.07 0.09 0.11 0.15 0.21 0.25 0.29 0.34 0.37 0.37 0.39 0.41 0.44 0.46 0.42 0.40 0.42 0.45 0.51 0.55 0.42 0.26 0.20 0.19 0.25 0.28 0.33 0.34 0.35 0.33 0.31 0.28 0.37 0.43 0.50 0.59
0.04 0.05 0.06 0.06 0.08 0.09 0.09 0.12 0.15 0.19 0.22 0.27 0.33 0.40 0.48 0.54 0.52 0.53 0.56 0.56 0.58 0.54 0.49 0.47 0.50 0.55 0.65 0.56 0.33 0.26 0.27 0.35 0.38 0.45 0.45 0.36 0.30 0.24 0.20 0.28 0.38 0.41 0.43
0.05 0.05 0.06 0.08 0.11 0.14 0.19 0.26 0.29 0.30 0.30 0.33 0.37 0.43 0.50 0.58 0.58 0.60 0.63 0.64 0.63 0.62 0.60 0.59 0.59 0.64 0.71 0.63 0.40 0.33 0.36 0.46 0.52 0.49 0.49 0.45 0.31 0.22 0.18 0.20 0.30 0.33 0.40
0.07 0.07 0.09 0.10 0.12 0.17 0.24 0.31 0.36 0.35 0.37 0.41 0.42 0.45 0.52 0.54 0.53 0.64 0.71 0.78 0.81 0.77 0.73 0.76 0.72 0.68 0.69 0.61 0.47 0.34 0.33 0.45 0.61 0.63 0.60 0.56 0.40 0.26 0.23 0.20 0.20 0.22 0.28
0.08 0.08 0.10 0.12 0.14 0.18 0.25 0.32 0.34 0.36 0.37 0.41 0.43 0.49 0.57 0.63 0.66 0.73 0.78 0.89 0.96 0.93 0.88 0.89 0.92 0.84 0.79 0.76 0.56 0.41 0.33 0.41 0.57 0.72 0.72 0.61 0.47 0.37 0.30 0.27 0.26 0.24 0.25
0.06 0.08 0.11 0.15 0.17 0.19 0.23 0.28 0.34 0.42 0.46 0.47 0.48 0.53 0.59 0.65 0.75 0.85 0.85 0.87 0.93 0.96 0.96 0.93 0.89 0.89 0.89 0.94 0.81 0.62 0.46 0.46 0.60 0.73 0.76 0.66 0.61 0.53 0.44 0.41 0.37 0.32 0.30
0.06 0.08 0.13 0.16 0.17 0.17 0.19 0.22 0.29 0.42 0.50 0.50 0.50 0.54 0.59 0.65 0.78 0.90 0.92 0.83 0.83 0.87 0.85 0.80 0.77 0.79 0.82 0.87 0.80 0.69 0.65 0.66 0.75 0.86 0.97 0.92 0.84 0.78 0.70 0.64 0.60 0.56 0.50
0.09 0.14 0.16 0.17 0.16 0.17 0.19 0.21 0.28 0.42 0.52 0.53 0.50 0.52 0.55 0.63 0.73 0.86 0.91 0.77 0.64 0.62 0.63 0.56 0.50 0.49 0.52 0.62 0.65 0.60 0.56 0.60 0.71 0.86 1.03 1.00 0.93 0.90 0.89 0.86 0.81 0.76 0.70